AirNav   ATP
 
 273 users online  

2GE2 Georgia Baptist Urgent Care Heliport
Fayetteville, Georgia, USA


FAA INFORMATION EFFECTIVE 14 SEPTEMBER 2017

Location

FAA Identifier: 2GE2
Lat/Long: 32-26-56.5200N / 084-28-47.7100W
32-26.942000N / 084-28.795167W
32.4490333 / -84.4799194
(estimated)
Elevation: 860 ft. / 262 m (estimated)
Variation: 03W (1995)
Time zone: UTC -4 (UTC -5 during Standard Time)
Zip code: 31058

Heliport Operations

Heliport use: Private use. Permission required prior to landing
Activation date: 07/1999
Control tower: no
ARTCC: ATLANTA CENTER
FSS: MACON FLIGHT SERVICE STATION
Attendance: CONTINUOUS
Wind indicator: yes
Segmented circle: no
Lights: FOR PERIMETER LGTS CALL 770-653-3646.

Heliport Communications

WX AWOS-3 at 6A1 (14 nm NE): 119.525 (478-862-2966)

Nearby radio navigation aids

VOR radial/distance  VOR name  Freq  Var
LSFr077/26.9LAWSON VOR/DME111.4002W
CSGr109/29.0COLUMBUS VORTAC117.1001E

 
NDB name  Hdg/Dist  Freq  Var  ID
MONTEZUMA286/24.442604WIZS .. --.. ...
LINDBERGH315/25.024204WLKG .-.. -.- --.
LAWSON073/29.133502WAWS .- .-- ...
PINE MOUNTAIN143/30.927203WPIM .--. .. --

Heliport Services

Fuel available: A

Runway Information

Helipad H1

Dimensions: 40 x 40 ft. / 12 x 12 m
Surface: concrete, in good condition
Runway edge lights: PERI
Traffic pattern: leftleft

Heliport Ownership and Management from official FAA records

Ownership: Privately-owned
Owner: BAPTIST CONVENTION EXEC COMMITTEE
300 BOULEVARD, NE, P.O. BOX 288
ATLANTA, GA 30312
Phone 770-653-4455
Manager: RALPH MC DANIEL
300 BOULEVARD, NE, P.O. BOX 288
ATLANTA, GA 30312
Phone 770-653-3646

Heliport Operational Statistics

Aircraft based on the field: 1
Helicopters: 1
    

Instrument Procedures

There are no published instrument procedures at 2GE2.

Some nearby airports with instrument procedures:

6A1 - Butler Municipal Airport (14 nm NE)
KCSG - Columbus Airport (24 nm W)
KACJ - Jimmy Carter Regional Airport (25 nm SE)
53A - Dr. C P Savage Sr. Airport (26 nm E)
KLSF - Lawson Army Airfield (Fort Benning) (27 nm W)
 
Loc | Ops | Rwys | IFR | FBO | Links
Com | Nav | Svcs | Stats | Notes


 
Area around 2GE2 (Georgia Baptist Urgent Care Heliport)
 
Road maps at: MapQuest Bing Google
 
Aerial photo
No photo
 
Sectional chart

 
Airport distance calculator
Flying to Georgia Baptist Urgent Care Heliport? Find the distance to fly.

From to 2GE2

Sunrise and sunset
Times for 24-Sep-2017
 Local
(UTC-4)
 Zulu
(UTC)
Morning civil twilight07:0411:04
Sunrise07:2811:28
Sunset19:3223:32
Evening civil twilight19:5623:56

Current date and time
Zulu (UTC)  24-Sep-2017 07:34:40
Local (UTC-4)  24-Sep-2017 03:34:40
 
METAR
K6A1 
14nm NE 
240715Z AUTO 00000KT 7SM 20/19 A3002 RMK AO2 T01990190
KCSG 
24nm W 
240651Z AUTO 02003KT 10SM CLR 23/18 A2999 RMK AO2 SLP151 T02330183
KACJ 
25nm SE 
240715Z AUTO 00000KT 2 1/2SM BR CLR 18/18 A3001 RMK AO2
TAF
KCSG 
24nm W 
240527Z 2406/2506 08002KT P6SM FEW250 FM241600 10009KT P6SM SCT050 FM250100 00000KT P6SM SCT250
KLSF 
28nm W 
240449Z 2404/2507 VRB03KT 4800 BR SKC QNH2995INS TEMPO 2404/2411 1600 BR BECMG 2411/2412 06009KT 9999 NSW SKC QNH2998INS BECMG 2414/2415 06010G15KT 9999 SCT050 QNH2993INS BECMG 2423/2424 07006KT 9999 SKC QNH2993INS BECMG 2504/2505 VRB03KT 4800 BR SKC QNH2994INS TX31/2418Z TN16/2404Z
NOTAMs
Click for the latest NOTAMs
NOTAMs are issued by the DoD/FAA and will open in a separate window not controlled by AirNav.

 

 
 

Would you like to see your business listed on this page?

 If your business provides an interesting product or service to pilots, flight crews, aircraft, or users of the Georgia Baptist Urgent Care Heliport, you should consider listing it here.  To start the listing process, click on the button below
 
Add a business
 

Other Pages about Georgia Baptist Urgent Care Heliport

Update a link
 
Copyright © AirNav, LLC. All rights reserved. Privacy Policy  Contact